STARLINK-30925, 58406

Orbit data source: Space-Track

STARLINK-30925, 58406 is a payload satellite owned by SpaceX/Seattle (US) in LEO that was launched on Wed, 22 Nov 2023 UTC via an FALCON 9 launch vehicle from the Air Force Eastern Test Range (AFETR). Payload-class satellites include a variety of spacecraft equipped with specific instruments for various scientific and technological missions. These include communications satellites like Starlink; space stations such as the ISS; scientific satellites like the Hubble; Earth observation satellites from companies like Planet Labs, Umbra, and HawkEye 360; GPS; miniature CubeSats for education and research; and military/defense satellites.

Loading next visibility...
Identifier
58406, 2023-180E
Orbit
LEO
Country
Flag of USUS
Related business
Manufacturer
SpaceX/Seattle
Mission
Operational Commercial Communications
Bus & Motor
STARLINK V2M, Unknown motor
Mass
730 kg wet, ~700 kg dry
Launch date (UTC)
2023-11-22 (2 years ago)
Launch vehicle
FALCON 9
Launch site
Air Force Eastern Test Range (AFETR)
Object type
Payload
Rocket body
Debris
Shape & HBR
Box + 2 Pan, 14.5 m
Radar Cross Section
33.884 m², Large (>1 m²)

Expand to show TLE details & history
Last TLE update: 13 hours ago

TLE from 13 hours ago
0 STARLINK-30925
1 58406U 23180E   25250.29108749  .00001934  00000-0  15817-3 0  9993
2 58406  43.0035 332.8710 0001358 264.5463  95.5225 15.02547187 99883
Epoch: 2025-09-07T06:59Z
TLE epoch observation values (Epoch: 2025-09-07T06:59:09.959Z)
Latitude
0.00003°
Longitude
-118.53313°
Altitude
558.914 km
Speed
7.584 km/s
True Right ascension
22h 11m 29s
True Declination
0° 00' 00"
Sunlit
Object was in full shadow at epoch
Visualization orbit readout
Latitude
Unknown
Longitude
Unknown
Altitude
Unknown
Speed
Unknown
Apparent Right ascension
Unknown
Apparent Declination
Unknown
Sunlit
N/A
Visualization observer readout
Local Sidereal Time
11:43:39
Azimuth
Unknown
Elevation
Unknown
Doppler factor
Unknown
Orbital elements
Apogee altitude
561.911 km
Perigee altitude
560.026 km
Semi-major axis
6,939.105 km
Eccentricity
0.00014
Inclination
43.0035°
RAAN
332.871°
Arg. of periapsis
264.5463°
True anomaly
95.53799°
Mean anomaly
95.5225°
Eccentric anomaly
95.53024°
Mean motion
3.75481 °/min
Orbital period
95.88 mins
BSTAR
0.00015817
Loading maneuver chart data...
Computing Atmospheric mass density...
Loading historical data...
Loading historical data...
Loading historical data...
Loading historical data...
Loading historical data...
Loading historical data...
Loading historical data...

Documentation

Showing up to 5 results
|